Overview Statistics Trail Chart Weather Telemetry Raw packets
 

This is the latest recevied weather packets stored in our database for station/object KE5QKR. If no packets are shown the sender has not sent any weather packets the latest 10 day(s).

<< 9 10 11 12 13 14 15 >>
Time Temp. Humidity Pressure Rain* Wind** Luminosity Snow
1777897229 11.67° C 99% 1017.1 hPa 0 mm - 35 W/m² -
1777896926 11.67° C 99% 1017 hPa 0 mm - 42 W/m² -
1777896623 11.67° C 99% 1016.9 hPa 0 mm - 40 W/m² -
1777896320 10.56° C 99% 1016.9 hPa 0 mm - 38 W/m² -
1777896018 11.11° C 99% 1017 hPa 0 mm - 30 W/m² -
1777895716 10.56° C 99% 1016.9 hPa 0 mm - 25 W/m² -
1777895413 10° C 99% 1016.8 hPa 0 mm - 21 W/m² -
1777895110 10° C 99% 1016.8 hPa 0 mm - 17 W/m² -
1777894808 10° C 99% 1016.8 hPa 0 mm - 15 W/m² -
1777894504 9.44° C 99% 1016.8 hPa 0 mm - 13 W/m² -
1777894202 9.44° C 99% 1016.9 hPa 0 mm - 10 W/m² -
1777893898 9.44° C 99% 1016.7 hPa 0 mm - 7 W/m² -
1777893594 9.44° C 99% 1016.8 hPa 0 mm - 5 W/m² -
1777893291 9.44° C 99% 1016.8 hPa 0 mm - 3 W/m² -
1777892987 8.89° C 99% 1016.8 hPa 0 mm - 2 W/m² -
1777892685 8.89° C 99% 1016.7 hPa 0 mm - 1 W/m² -
1777892380 9.44° C 99% 1016.9 hPa 0 mm - 0 W/m² -
1777892076 9.44° C 99% 1016.8 hPa 0 mm - 0 W/m² -
1777891774 9.44° C 99% 1016.5 hPa 0 mm - 0 W/m² -
1777891471 9.44° C 99% 1016.8 hPa 0 mm - 0 W/m² -
1777891167 9.44° C 99% 1016.9 hPa 0 mm - 0 W/m² -
1777890866 9.44° C 99% 1016.7 hPa 0 mm - 0 W/m² -
1777890563 10° C 99% 1016.8 hPa 0 mm - 0 W/m² -
1777890258 10° C 99% 1016.7 hPa 0 mm - 0 W/m² -
1777889954 10° C 99% 1016.7 hPa 0 mm - 0 W/m² -

* Rain latest hour (hover to see other rain measurements)
** Current wind speed in m/s (hover to see current wind gust speed)